Weather at Dijon Darois Airfield

Public forecast

Using degrees Celsius for public forecast. Weather courtesy of forecast.io.

Closest aviation weather report (METAR) to Dijon Darois Airfield

Closest report is Dijon-Bourgogne Airport, 9.1 nm (16.9 km) SE. Retrieved 2020/09/20 10:30 UTC (21 minutes ago):

LFSD 201030Z AUTO VRB02KT CAVOK 22/19 Q1015

Closest aviation forecast (TAF) to Dijon Darois Airfield

Forecast is more than 12 hours old.

Closest forecast is Dijon-Bourgogne Airport, 9.1 nm (16.9 km) SE. Retrieved 2015/06/01 00:11 UTC (5 years ago):

TAF LFSD 010600Z 0100/0124 CNL